Regional Weather Roundup
Issued by NWS

Home | Current Version | Previous Version | Text Only | Print | Product List | Glossary On
Versions: 1 2 3 4 5 6 7 8 9 10 11 12 13 14 15 16 17 18 19 20 21 22 23 24 25 26 27 28 29 30 31 32 33 34 35 36 37 38 39 40 41 42 43 44 45 46 47 48 49 50
000
ASUS43 KLSX 280257
RWRMO

WEATHER SUMMARY FOR MISSOURI
NATIONAL WEATHER SERVICE SPRINGFIELD MO
1000 PM CDT FRI MAY 27 2016

NOTE: "FAIR" INDICATES FEW OR NO CLOUDS BELOW 12,000 FEET WITH NO
       SIGNIFICANT WEATHER AND/OR OBSTRUCTIONS TO VISIBILITY.
       CURRENT SKY AND/OR WEATHER CONDITIONS ARE NOT AVAILABLE FOR
       CHILLICOTHE AND FARMINGTON.

MOZ001>031-035>038-043-044-053-054-280400-
...NORTHERN AND WESTERN MISSOURI...

CITY           SKY/WX    TMP DP  RH WIND       PRES   REMARKS
KANSAS CTY INT CLOUDY    64  57  78 NW13G20   29.76R
LEE`S SUMMIT   CLOUDY    70  64  81 S8        29.75R
ST JOSEPH      LGT RAIN  63  57  81 W20       29.76R
CHILLICOTHE      N/A     67  66  97 NW3       29.77R
KIRKSVILLE     LGT RAIN  64  63  94 CALM      29.77S FOG

$$
MOZ066>068-077>081-088>096-101>105-280400-
...SOUTHWEST MISSOURI...

CITY           SKY/WX    TMP DP  RH WIND       PRES   REMARKS
SPRINGFIELD    PTCLDY    70  65  84 S9        29.79R
JOPLIN         CLOUDY    71  65  81 S14       29.79R

$$
MOZ032>034-039>042-045>050-055>058-069>072-280400-
...CENTRAL MISSOURI...

CITY           SKY/WX    TMP DP  RH WIND       PRES   REMARKS
COLUMBIA       NOT AVBL
JEFFERSON CITY CLOUDY    70  67  90 E5        29.78R
ROLLA          CLOUDY    68  65  90 S12       29.80R
SEDALIA        CLOUDY    72  68  87 S7        29.78R
WARRENSBURG    MOCLDY    68  63  83 SE3       29.74R

$$
MOZ051-052-059>065-280400-
...EAST CENTRAL MISSOURI...

CITY           SKY/WX    TMP DP  RH WIND       PRES   REMARKS
ST LOUIS INTL  CLOUDY    72  67  84 S10       29.83R

$$
MOZ072>076-082>087-097>100-106>115-280400-
...SOUTH CENTRAL AND SOUTHEAST MISSOURI...

CITY           SKY/WX    TMP DP  RH WIND       PRES   REMARKS
CAPE GIRARDEAU CLOUDY    72  68  87 S7        29.87R
POPLAR BLUFF   MOCLDY    70  67  90 S9        29.86R
WEST PLAINS    CLOUDY    70  65  84 S12G20    29.86R

$$



USA.gov is the U.S. government's official web portal to all federal, state and local government web resources and services.